| time (UTC) | temp F | wind direction | speed MPH | gust MPH | rain 1hr in | rain 24hr in | rain mn in | humidity % | barometer mb |
| 20260507093644 | 71 | 0.0 | 0.0 | 0.00 | 0.00 | 0.00 | 53 | 1022.5 | |
| 20260507091640 | 70 | 0.0 | 0.0 | 0.00 | 0.00 | 0.00 | 54 | 1022.4 | |
| 20260507083633 | 70 | 0.0 | 0.0 | 0.00 | 0.00 | 0.00 | 54 | 1022.4 | |
| 20260507081629 | 69 | 0.0 | 0.0 | 0.00 | 0.00 | 0.00 | 54 | 1022.1 | |
| 20260507075625 | 69 | 0.0 | 0.0 | 0.00 | 0.00 | 0.00 | 56 | 1022.2 | |
| 20260507073622 | 69 | 0.0 | 0.0 | 0.00 | 0.00 | 0.00 | 57 | 1022.3 | |
| 20260507071618 | 68 | 0.0 | 0.0 | 0.00 | 0.00 | 0.00 | 60 | 1022.3 | |
| 20260507065614 | 68 | 0.0 | 0.0 | 0.00 | 0.00 | 0.00 | 60 | 1022.4 | |
| 20260507063610 | 68 | 0.0 | 0.0 | 0.00 | 0.00 | 0.00 | 61 | 1022.2 | |
| 20260507062554 | 67 | 0.0 | 0.0 | 0.00 | 0.00 | 0.00 | 61 | 1022.1 | |
| 20260507061607 | 67 | 0.0 | 0.0 | 0.00 | 0.00 | 0.00 | 61 | 1022.1 | |
| 20260507055603 | 67 | 0.0 | 0.0 | 0.00 | 0.00 | 0.00 | 62 | 1022.3 | |
| 20260507053559 | 67 | 0.0 | 0.0 | 0.00 | 0.00 | 0.00 | 61 | 1022.4 | |
| 20260507053149 | 67 | 0.0 | 0.0 | 0.00 | 0.00 | 0.00 | 57 | 1021.6 | |
| 20260507051555 | 67 | 0.0 | 0.0 | 0.00 | 0.00 | 0.00 | 61 | 1021.9 | |
| 20260507045552 | 67 | 0.0 | 0.0 | 0.00 | 0.00 | 0.00 | 61 | 1021.8 | |
| 20260507043548 | 67 | 0.0 | 0.0 | 0.00 | 0.00 | 0.00 | 58 | 1021.5 | |
| 20260507041544 | 67 | 0.0 | 0.0 | 0.00 | 0.00 | 0.00 | 57 | 1021.6 | |
| 20260507035540 | 67 | 0.0 | 0.0 | 0.00 | 0.00 | 0.00 | 56 | 1021.6 | |
| 20260507033536 | 67 | 0.0 | 0.0 | 0.00 | 0.00 | 0.00 | 56 | 1021.9 | |
| 20260507031533 | 67 | 0.0 | 0.0 | 0.00 | 0.00 | 0.00 | 56 | 1021.9 | |
| 20260507025529 | 67 | 0.0 | 0.0 | 0.00 | 0.00 | 0.00 | 55 | 1021.8 | |
| 20260507023525 | 67 | 0.0 | 0.0 | 0.00 | 0.00 | 0.00 | 52 | 1021.6 | |
| 20260507021521 | 67 | 0.0 | 0.0 | 0.00 | 0.00 | 0.00 | 56 | 1021.4 | |
| 20260507015518 | 67 | 0.0 | 0.0 | 0.00 | 0.00 | 0.00 | 55 | 1021.4 | |
| 20260507013514 | 67 | 0.0 | 0.0 | 0.00 | 0.00 | 0.00 | 54 | 1021.8 | |
| 20260507011510 | 67 | 0.0 | 0.0 | 0.00 | 0.00 | 0.00 | 59 | 1021.9 | |
| 20260507005506 | 67 | 0.0 | 0.0 | 0.00 | 0.00 | 0.00 | 60 | 1021.8 | |
| 20260507003503 | 67 | 0.0 | 0.0 | 0.00 | 0.00 | 0.00 | 60 | 1021.9 | |
| 20260507001459 | 67 | 0.0 | 0.0 | 0.00 | 0.00 | 0.00 | 61 | 1022.2 | |
| 20260506235455 | 67 | 0.0 | 0.0 | 0.00 | 0.00 | 0.00 | 61 | 1022.3 | |
| 20260506233451 | 67 | 0.0 | 0.0 | 0.00 | 0.00 | 0.00 | 60 | 1022.3 | |
| 20260506231448 | 68 | 0.0 | 0.0 | 0.00 | 0.00 | 0.00 | 59 | 1022.4 | |
| 20260506225444 | 68 | 0.0 | 0.0 | 0.00 | 0.00 | 0.00 | 59 | 1022.5 | |
| 20260506223440 | 68 | 0.0 | 0.0 | 0.00 | 0.00 | 0.00 | 58 | 1022.5 | |
| 20260506221436 | 68 | 0.0 | 0.0 | 0.00 | 0.00 | 0.00 | 59 | 1022.6 | |
| 20260506215432 | 68 | 0.0 | 0.0 | 0.00 | 0.00 | 0.00 | 60 | 1022.6 | |
| 20260506213429 | 68 | 0.0 | 0.0 | 0.00 | 0.00 | 0.00 | 59 | 1022.7 | |
| 20260506211425 | 68 | 0.0 | 0.0 | 0.00 | 0.00 | 0.00 | 59 | 1022.8 | |
| 20260506205421 | 69 | 0.0 | 0.0 | 0.00 | 0.00 | 0.00 | 62 | 1022.4 | |
| 20260506203417 | 69 | 0.0 | 0.0 | 0.00 | 0.00 | 0.00 | 62 | 1022.2 | |
| 20260506201414 | 69 | 0.0 | 0.0 | 0.00 | 0.00 | 0.00 | 61 | 1021.8 | |
| 20260506195410 | 69 | 0.0 | 0.0 | 0.00 | 0.00 | 0.00 | 62 | 1022.2 | |
| 20260506193406 | 69 | 0.0 | 0.0 | 0.00 | 0.00 | 0.00 | 63 | 1022.9 | |
| 20260506191403 | 69 | 0.0 | 0.0 | 0.00 | 0.00 | 0.00 | 62 | 1023.0 | |
| 20260506185648 | 69 | 0.0 | 0.0 | 0.00 | 0.00 | 0.00 | 62 | 1022.9 | |
| 20260506185359 | 69 | 0.0 | 0.0 | 0.00 | 0.00 | 0.00 | 62 | 1022.9 | |
| 20260506183355 | 69 | 0.0 | 0.0 | 0.00 | 0.00 | 0.00 | 61 | 1022.9 | |
| 20260506181351 | 70 | 0.0 | 0.0 | 0.00 | 0.00 | 0.00 | 61 | 1023.0 | |
| 20260506175347 | 70 | 0.0 | 0.0 | 0.00 | 0.00 | 0.00 | 61 | 1022.9 | |
| 20260506173344 | 70 | 0.0 | 0.0 | 0.00 | 0.00 | 0.00 | 61 | 1022.6 | |
| 20260506171340 | 70 | 0.0 | 0.0 | 0.00 | 0.00 | 0.00 | 61 | 1022.4 | |
| 20260506165336 | 70 | 0.0 | 0.0 | 0.00 | 0.00 | 0.00 | 61 | 1022.6 | |
| 20260506163332 | 71 | 0.0 | 0.0 | 0.00 | 0.00 | 0.00 | 61 | 1022.7 | |
| 20260506161328 | 71 | 0.0 | 0.0 | 0.00 | 0.00 | 0.00 | 61 | 1022.9 | |
| 20260506155324 | 71 | 0.0 | 0.0 | 0.00 | 0.00 | 0.00 | 60 | 1022.9 | |
| 20260506153321 | 71 | 0.0 | 0.0 | 0.00 | 0.00 | 0.00 | 60 | 1022.9 | |
| 20260506151317 | 71 | 0.0 | 0.0 | 0.00 | 0.00 | 0.00 | 59 | 1023.0 | |
| 20260506145313 | 71 | 0.0 | 0.0 | 0.00 | 0.00 | 0.00 | 59 | 1023.2 | |
| 20260506143750 | 71 | 0.0 | 0.0 | 0.00 | 0.00 | 0.00 | 59 | 1023.0 | |
| 20260506135302 | 71 | 0.0 | 0.0 | 0.00 | 0.00 | 0.00 | 59 | 1022.9 | |
| 20260506133258 | 72 | 0.0 | 0.0 | 0.00 | 0.00 | 0.00 | 59 | 1023.2 | |
| 20260506131254 | 72 | 0.0 | 0.0 | 0.00 | 0.00 | 0.00 | 59 | 1023.2 | |
| 20260506123247 | 72 | 0.0 | 0.0 | 0.00 | 0.00 | 0.00 | 58 | 1023.5 | |
| 20260506121243 | 71 | 0.0 | 0.0 | 0.00 | 0.00 | 0.00 | 59 | 1023.8 | |
| 20260506115239 | 71 | 0.0 | 0.0 | 0.00 | 0.00 | 0.00 | 59 | 1023.6 | |
| 20260506113235 | 71 | 0.0 | 0.0 | 0.00 | 0.00 | 0.00 | 59 | 1023.7 | |
| 20260506111232 | 71 | 0.0 | 0.0 | 0.00 | 0.00 | 0.00 | 59 | 1023.6 | |
| 20260506105228 | 71 | 0.0 | 0.0 | 0.00 | 0.00 | 0.00 | 60 | 1023.7 | |
| 20260506103224 | 70 | 0.0 | 0.0 | 0.00 | 0.00 | 0.00 | 60 | 1024.0 | |
| 20260506095217 | 70 | 0.0 | 0.0 | 0.00 | 0.00 | 0.00 | 60 | 1024.0 |